ETD101 OBBI-OMAA

Flight info

Callsign ETD101
Flight time 0h 51m
Altitude 25000
Route BHR345/30R BHR DCT ASTAD N318 KAPUM Z522 ALNEV Q415 UKILI
Aircraft A320/M-SDE3FGHIRWY/LB1

Departure

Time 2026-05-04 17:03
Airport Bahrain International Airport (OBBI)

Arrival

Time 2026-05-04 17:54
Airport Zayed International Airport (OMAA)
Time Latitude Longitude Altitude Speed Heading
2026-05-04 16:39 26.26764 50.63181 20 ft 0 kts 212°
2026-05-04 16:54 26.26785 50.63196 20 ft 4 kts 214°
2026-05-04 16:55 26.26823 50.63250 20 ft 0 kts 303°
2026-05-04 16:57 26.26853 50.63201 19 ft 7 kts 303°
2026-05-04 16:58 26.26926 50.63281 19 ft 14 kts 122°
2026-05-04 16:58 26.26869 50.63381 19 ft 17 kts 123°
2026-05-04 16:59 26.26726 50.63629 19 ft 21 kts 122°
2026-05-04 17:00 26.26330 50.64311 20 ft 31 kts 123°
2026-05-04 17:00 26.26035 50.64824 19 ft 16 kts 122°
2026-05-04 17:01 26.26033 50.64948 20 ft 1 kts 49°
2026-05-04 17:01 26.26114 50.65003 22 ft 14 kts
2026-05-04 17:02 26.26432 50.64494 18 ft 98 kts 303°
2026-05-04 17:02 26.27500 50.62630 388 ft 164 kts 303°
2026-05-04 17:03 26.28274 50.61696 987 ft 165 kts 334°
2026-05-04 17:03 26.29336 50.61250 1700 ft 163 kts 346°
2026-05-04 17:03 26.31804 50.60549 2159 ft 204 kts 348°
2026-05-04 17:04 26.34819 50.59860 2743 ft 242 kts
2026-05-04 17:04 26.37702 50.61847 4001 ft 269 kts 61°
2026-05-04 17:05 26.37566 50.66101 5435 ft 292 kts 103°
2026-05-04 17:05 26.36246 50.70506 6865 ft 304 kts 107°
2026-05-04 17:06 26.34838 50.75016 8352 ft 311 kts 107°
2026-05-04 17:06 26.34140 50.77319 9088 ft 316 kts 107°
2026-05-04 17:07 26.32733 50.82048 10271 ft 334 kts 106°
2026-05-04 17:07 26.32244 50.83716 10396 ft 349 kts 106°
2026-05-04 17:07 26.31215 50.87238 10986 ft 362 kts 107°
2026-05-04 17:07 26.30433 50.89918 11648 ft 365 kts 107°
2026-05-04 17:08 26.29647 50.92606 12335 ft 367 kts 107°
2026-05-04 17:08 26.28047 50.98067 13693 ft 373 kts 107°
2026-05-04 17:08 26.27167 51.00799 14297 ft 376 kts 114°
2026-05-04 17:09 26.25945 51.03356 14901 ft 378 kts 120°
2026-05-04 17:09 26.24648 51.05923 15522 ft 381 kts 120°
2026-05-04 17:09 26.23344 51.08507 16135 ft 384 kts 120°
2026-05-04 17:10 26.20719 51.13726 17386 ft 388 kts 121°
2026-05-04 17:10 26.16723 51.21675 19066 ft 397 kts 121°
2026-05-04 17:11 26.15365 51.24364 19586 ft 400 kts 121°
2026-05-04 17:11 26.13992 51.27084 20102 ft 404 kts 121°
2026-05-04 17:11 26.11232 51.32550 21164 ft 411 kts 121°
2026-05-04 17:12 26.09824 51.35331 21685 ft 415 kts 121°
2026-05-04 17:12 26.06975 51.40976 22721 ft 422 kts 121°
2026-05-04 17:13 26.02602 51.49634 24106 ft 432 kts 121°
2026-05-04 17:14 25.98153 51.58401 24780 ft 428 kts 122°
2026-05-04 17:14 25.96707 51.61242 24789 ft 419 kts 122°
2026-05-04 17:14 25.93850 51.66850 24786 ft 416 kts 122°
2026-05-04 17:15 25.92421 51.69649 24787 ft 415 kts 122°
2026-05-04 17:15 25.89582 51.75231 24787 ft 415 kts 121°
2026-05-04 17:16 25.86823 51.80862 24786 ft 415 kts 121°
2026-05-04 17:16 25.82758 51.89366 24790 ft 417 kts 118°
2026-05-04 17:17 25.81516 51.92234 24792 ft 417 kts 117°
2026-05-04 17:17 25.77929 52.01038 24794 ft 417 kts 116°
2026-05-04 17:18 25.76722 52.03970 24798 ft 417 kts 117°
2026-05-04 17:18 25.74280 52.09800 24802 ft 417 kts 117°
2026-05-04 17:19 25.71808 52.15615 24804 ft 417 kts 117°
2026-05-04 17:19 25.69338 52.21440 24800 ft 417 kts 117°
2026-05-04 17:20 25.66882 52.27262 24806 ft 417 kts 117°
2026-05-04 17:20 25.64436 52.33046 24801 ft 417 kts 117°
2026-05-04 17:20 25.63200 52.35958 24803 ft 417 kts 117°
2026-05-04 17:21 25.60665 52.41740 24809 ft 417 kts 120°
2026-05-04 17:21 25.57843 52.47343 24808 ft 416 kts 122°
2026-05-04 17:22 25.56389 52.50110 24806 ft 416 kts 122°
2026-05-04 17:22 25.54938 52.52876 24802 ft 416 kts 122°
2026-05-04 17:23 25.50665 52.61237 24815 ft 416 kts 121°
2026-05-04 17:23 25.49259 52.64033 24803 ft 416 kts 121°
2026-05-04 17:23 25.46441 52.69621 24807 ft 415 kts 121°
2026-05-04 17:24 25.45029 52.72406 24809 ft 415 kts 122°
2026-05-04 17:24 25.40594 52.80617 24808 ft 414 kts 124°
2026-05-04 17:25 25.39073 52.83319 24805 ft 414 kts 124°
2026-05-04 17:25 25.36027 52.88720 24805 ft 414 kts 124°
2026-05-04 17:26 25.32989 52.94138 24802 ft 414 kts 124°
2026-05-04 17:26 25.29163 53.02659 24804 ft 415 kts 116°
2026-05-04 17:27 25.26786 53.08474 24804 ft 415 kts 116°
2026-05-04 17:27 25.24405 53.14281 24802 ft 415 kts 116°
2026-05-04 17:28 25.22021 53.20081 24800 ft 415 kts 116°
2026-05-04 17:29 25.18436 53.28774 24796 ft 414 kts 118°
2026-05-04 17:29 25.13343 53.36362 24795 ft 410 kts 132°
2026-05-04 17:30 25.07917 53.43617 24803 ft 410 kts 132°
2026-05-04 17:31 25.04282 53.48471 24805 ft 410 kts 132°
2026-05-04 17:31 24.98656 53.55933 24623 ft 424 kts 134°
2026-05-04 17:32 24.94055 53.59681 23982 ft 406 kts 157°
2026-05-04 17:33 24.86496 53.63719 22737 ft 398 kts 156°
2026-05-04 17:33 24.84017 53.65042 22294 ft 395 kts 156°
2026-05-04 17:34 24.76947 53.69489 20974 ft 390 kts 137°
2026-05-04 17:34 24.75261 53.71763 20540 ft 389 kts 123°
2026-05-04 17:35 24.71340 53.79484 19205 ft 381 kts 120°
2026-05-04 17:35 24.68770 53.84537 18359 ft 375 kts 120°
2026-05-04 17:35 24.67498 53.87029 17938 ft 373 kts 120°
2026-05-04 17:36 24.66232 53.89508 17468 ft 370 kts 120°
2026-05-04 17:36 24.64975 53.91966 16982 ft 368 kts 120°
2026-05-04 17:36 24.63732 53.94408 16676 ft 361 kts 119°
2026-05-04 17:36 24.62609 53.96827 16533 ft 350 kts 116°
2026-05-04 17:37 24.61594 53.99228 16240 ft 344 kts 114°
2026-05-04 17:37 24.60629 54.01624 15887 ft 341 kts 113°
2026-05-04 17:37 24.59681 54.04009 15513 ft 340 kts 113°
2026-05-04 17:37 24.58729 54.06381 15145 ft 338 kts 114°
2026-05-04 17:38 24.57772 54.08732 14785 ft 336 kts 114°
2026-05-04 17:38 24.56807 54.11070 14422 ft 335 kts 114°
2026-05-04 17:38 24.55839 54.13395 14062 ft 334 kts 114°
2026-05-04 17:38 24.54885 54.15677 13720 ft 332 kts 114°
2026-05-04 17:39 24.52979 54.20288 12953 ft 330 kts 111°
2026-05-04 17:39 24.52406 54.21830 12695 ft 329 kts 110°
2026-05-04 17:39 24.51323 54.24967 12183 ft 328 kts 108°
2026-05-04 17:40 24.50542 54.27308 11840 ft 325 kts 108°
2026-05-04 17:40 24.50029 54.28851 11634 ft 323 kts 108°
2026-05-04 17:40 24.49256 54.31154 11404 ft 321 kts 108°
2026-05-04 17:40 24.48479 54.33443 11187 ft 320 kts 108°
2026-05-04 17:41 24.47697 54.35726 10963 ft 320 kts 108°
2026-05-04 17:41 24.46907 54.38013 10621 ft 320 kts 108°
2026-05-04 17:41 24.46117 54.40290 10290 ft 319 kts 108°
2026-05-04 17:41 24.45329 54.42559 9963 ft 318 kts 108°
2026-05-04 17:42 24.44538 54.44826 9630 ft 317 kts 108°
2026-05-04 17:42 24.43750 54.47082 9287 ft 316 kts 108°
2026-05-04 17:42 24.42975 54.49301 9155 ft 306 kts 108°
2026-05-04 17:42 24.42216 54.51447 9019 ft 299 kts 111°
2026-05-04 17:43 24.41154 54.53387 8863 ft 295 kts 126°
2026-05-04 17:43 24.39888 54.55162 8714 ft 295 kts 126°
2026-05-04 17:43 24.38626 54.56932 8547 ft 294 kts 126°
2026-05-04 17:43 24.37369 54.58695 8370 ft 293 kts 126°
2026-05-04 17:44 24.36132 54.60432 8207 ft 292 kts 126°
2026-05-04 17:44 24.34881 54.62185 8032 ft 291 kts 126°
2026-05-04 17:44 24.33636 54.63929 7760 ft 289 kts 126°
2026-05-04 17:44 24.32396 54.65663 7476 ft 288 kts 126°
2026-05-04 17:45 24.31163 54.67390 7196 ft 287 kts 126°
2026-05-04 17:45 24.29935 54.69109 6927 ft 286 kts 126°
2026-05-04 17:45 24.28710 54.70818 6656 ft 284 kts 126°
2026-05-04 17:45 24.27490 54.72521 6377 ft 283 kts 126°
2026-05-04 17:46 24.26277 54.74215 6114 ft 281 kts 124°
2026-05-04 17:46 24.25362 54.76023 5989 ft 262 kts 103°
2026-05-04 17:46 24.25118 54.77890 5863 ft 236 kts 81°
2026-05-04 17:46 24.25431 54.79546 5770 ft 209 kts 62°
2026-05-04 17:47 24.26117 54.80865 5656 ft 192 kts 45°
2026-05-04 17:47 24.26938 54.81965 5525 ft 182 kts 45°
2026-05-04 17:47 24.27716 54.83014 5400 ft 172 kts 45°
2026-05-04 17:47 24.28452 54.84009 5269 ft 164 kts 44°
2026-05-04 17:48 24.29274 54.84855 4897 ft 163 kts 23°
2026-05-04 17:48 24.30349 54.85146 4556 ft 159 kts 356°
2026-05-04 17:48 24.31412 54.84813 4152 ft 163 kts 328°
2026-05-04 17:48 24.32210 54.83936 3775 ft 168 kts 309°
2026-05-04 17:49 24.32923 54.82932 3499 ft 165 kts 309°
2026-05-04 17:49 24.33627 54.81942 3276 ft 164 kts 309°
2026-05-04 17:49 24.34328 54.80958 3062 ft 164 kts 309°
2026-05-04 17:49 24.35022 54.79984 2880 ft 158 kts 309°
2026-05-04 17:50 24.35662 54.79084 2660 ft 144 kts 308°
2026-05-04 17:50 24.36265 54.78237 2486 ft 139 kts 308°
2026-05-04 17:50 24.36853 54.77411 2313 ft 137 kts 308°
2026-05-04 17:50 24.37436 54.76592 2146 ft 135 kts 308°
2026-05-04 17:51 24.38016 54.75778 1974 ft 135 kts 308°
2026-05-04 17:51 24.38593 54.74967 1796 ft 135 kts 308°
2026-05-04 17:51 24.39169 54.74157 1630 ft 135 kts 309°
2026-05-04 17:51 24.39743 54.73350 1455 ft 134 kts 310°
2026-05-04 17:52 24.40314 54.72547 1289 ft 133 kts 307°
2026-05-04 17:52 24.40884 54.71746 1116 ft 133 kts 309°
2026-05-04 17:52 24.41453 54.70944 943 ft 133 kts 307°
2026-05-04 17:52 24.42029 54.70146 751 ft 134 kts 307°
2026-05-04 17:53 24.42604 54.69335 623 ft 135 kts 307°
2026-05-04 17:53 24.43193 54.68516 507 ft 137 kts 306°
2026-05-04 17:53 24.43768 54.67687 304 ft 137 kts 307°
2026-05-04 17:53 24.44329 54.66898 112 ft 134 kts 307°
2026-05-04 17:54 24.44850 54.66160 72 ft 100 kts 308°
2026-05-04 17:54 24.45105 54.65803 73 ft 34 kts 308°
2026-05-04 17:54 24.45261 54.65587 76 ft 39 kts 308°
2026-05-04 17:54 24.45394 54.65344 70 ft 36 kts 287°
2026-05-04 17:55 24.45433 54.65104 74 ft 21 kts 278°
2026-05-04 17:55 24.45490 54.64965 72 ft 20 kts 308°
2026-05-04 17:55 24.45573 54.64836 70 ft 22 kts 308°
2026-05-04 17:55 24.45665 54.64708 72 ft 17 kts 308°
2026-05-04 17:56 24.45700 54.64611 74 ft 14 kts 245°
2026-05-04 17:56 24.45684 54.64516 67 ft 15 kts 305°
2026-05-04 17:56 24.45755 54.64419 67 ft 18 kts 307°
2026-05-04 17:56 24.45837 54.64304 69 ft 16 kts 308°
2026-05-04 17:57 24.45802 54.64205 64 ft 17 kts 199°
2026-05-04 17:57 24.45707 54.64269 73 ft 18 kts 142°
2026-05-04 17:57 24.45613 54.64289 73 ft 12 kts 234°
2026-05-04 17:57 24.45578 54.64226 69 ft 7 kts 234°
2026-05-04 17:58 24.45574 54.64219 68 ft 0 kts 234°